Location: Dampvalley
(47.9094°N, 6.1967°E)
Time: 19:59:24
(UTC+00:00)

CZ-3 R/B - Pass Details

Date: 05 March 2021
Orbit: 386 x 10219 km, 28.4° (Epoch: 20 April)

Event Time Altitude Azimuth Distance (km) Brightness Sun altitude
Exits shadow 04:19:27 - 225° (SW) 8,134 5.7 -19.0°
Reaches altitude 10° 04:23:47 10° 219° (SW) 6,897 5.4 -18.3°
Maximum altitude 04:34:42 18° 184° (S) 3,842 4.4 -16.5°
Drops below altitude 10° 04:40:16 10° 143° (SE) 3,228 4.6 -15.5°
Sets 04:43:06 0° 123° (ESE) 3,552 5.3 -15.1°
